Regional Weather Roundup
Issued by NWS

Home | Current Version | Previous Version | Text Only | Print | Product List | Glossary On
Versions: 1 2 3 4 5 6 7 8 9 10 11 12 13 14 15 16 17 18 19 20 21 22 23 24 25 26 27
000
ASUS45 KTFX 310710
RWRMT
MONTANA REGIONAL WEATHER ROUNDUP
NATIONAL WEATHER SERVICE GREAT FALLS MT
100 AM MDT TUE MAY 31 2016

NOTE: "FAIR" INDICATES FEW OR NO CLOUDS BELOW 12000 FEET WITH NO
SIGNIFICANT WEATHER AND/OR OBSTRUCTIONS TO VISIBILITY.

MTZ001>007-043-310800-
WEST OF THE DIVIDE

CITY           SKY/WX    TMP DP  RH WIND       PRES   REMARKS
KALISPELL      MOCLDY    50  39  66 N9        30.17S
MISSOULA       MOCLDY    45  37  73 CALM      30.19R
BUTTE          MOCLDY    40  29  64 CALM      30.22S
MULLAN PASS    CLEAR     43  26  51 NW5       30.25F
ANACONDA         N/A     43  30  61 CALM      30.21R
DEER LODGE       N/A     43  34  70 NW5       30.22R
EUREKA           N/A     45  39  81 CALM      30.20S
HAMILTON         N/A     45  34  65 E5        30.18S
LIBBY            N/A     45  37  76 CALM      30.19S
$$

MTZ008-052>055-310800-
SOUTHWEST MONTANA

CITY           SKY/WX    TMP DP  RH WIND       PRES   REMARKS
BOZEMAN        PTCLDY    44  34  67 NW10      30.19R
DILLON         CLEAR     46  26  45 CALM      30.18S
W YELLOWSTONE  CLEAR     30  27  86 CALM      30.22S
ENNIS          CLEAR     43  32  65 N13       30.24R
$$

MTZ009-010-012-014-046-048-049-054-310800-
EAST SLOPES AND CENTRAL MONTANA

CITY           SKY/WX    TMP DP  RH WIND       PRES   REMARKS
CUT BANK       PTCLDY    43  39  86 NW15      30.23S
GREAT FALLS    CLEAR     41  38  89 W8        30.22S
MALMSTROM AFB  PTCLDY    47  40  78 NW7       30.22R
HELENA         CLEAR     49  36  61 W7        30.20S
CHOTEAU          N/A     43  37  81 NW10      30.25S
$$

MTZ011-013-016-021-045-047-050-051-310800-
NORTH CENTRAL MONTANA

CITY           SKY/WX    TMP DP  RH WIND       PRES   REMARKS
HAVRE          CLOUDY    49  43  80 NW20G29   30.10S
LEWISTOWN      PTCLDY    44  38  79 W15       30.15F
N BAR RANCH    MOCLDY    43  36  75 NW35G43   30.06F
CHINOOK          N/A     50  45  81 W20G28    30.05F
$$

MTZ017>020-022>027-061-062-310800-
NORTHEAST MONTANA

CITY           SKY/WX    TMP DP  RH WIND       PRES   REMARKS
GLASGOW        CLOUDY    50  46  86 W7        29.91F
JORDAN           N/A     47  45  93 W16G24    29.96F
SIDNEY         CLEAR     48  43  82 W14G21    29.88S
WOLF POINT     LGT RAIN  50  45  83 W10       29.89F
POPLAR           N/A     48  45  87 W12       29.88F
$$

MTZ028>42-056>058-310800-
SOUTHCENTRAL AND SOUTHEAST MONTANA

CITY           SKY/WX    TMP DP  RH WIND       PRES   REMARKS
BAKER          CLOUDY    48  41  76 W15       29.95F
BILLINGS       PTCLDY    48  37  65 W14       30.13F
LIVINGSTON     CLEAR     47  32  56 W10       30.19R
MILES CITY     LGT RAIN  50  40  68 W25G32    29.99F
FORSYTH          N/A     52  37  58 W24G41    30.02F
$$

REGIONAL REPORTS...DAKOTAS

CITY           SKY/WX    TMP DP  RH WIND       PRES   REMARKS
WILLISTON      LGT RAIN  51  48  89 W9        29.86S
MINOT          LGT RAIN  57  54  89 NW9       29.78F
DICKINSON      CLEAR     44  41  89 NW10      29.87F
BEACH          CLOUDY    46  46 100 W10       29.95F
CROSBY         HVY RAIN  54  54 100 N13       29.85F
WATFORD CITY   CLOUDY    48  48 100 W13       29.87S
BISMARCK       CLOUDY    56  55  97 W10       29.81F
GRAND FORKS    CLOUDY    60  57  89 E16       29.72F
FARGO          CLOUDY    61  59  93 SE9       29.71F
BUFFALO SD       N/A     46  36  68 W7        29.91F
RAPID CITY     CLOUDY    53  37  54 NW17G25   30.03F
$$

REGIONAL REPORTS...WYOMING/IDAHO/WASHINGTON

CITY           SKY/WX    TMP DP  RH WIND       PRES   REMARKS
GILLETTE       CLEAR     42  40  92 W10       30.09F
SHERIDAN       CLOUDY    41  39  93 S6        30.10F
BUFFALO WY     MOCLDY    43  39  86 SW6       30.13F
CODY           CLEAR     45  32  61 NW6       30.18S
YELLOWSTONE LA   N/A     29  23  78 NW5       30.25F
IDAHO FALLS    CLEAR     43  36  76 CALM      30.11S
SALMON         CLEAR     50  27  40 CALM      30.16R
BOISE          PTCLDY    61  34  36 NE6       30.07S
SPOKANE        PTCLDY    56  32  40 S5        30.16F
$$

REGIONAL REPORTS...ALBERTA

CITY           SKY/WX    TMP DP  RH WIND       PRES   REMARKS
EDMONTON       MOCLDY    48  43  81 NW3       30.21F
LETHBRIDGE     CLEAR     45  39  81 W15       30.23F
MEDICINE HAT   CLOUDY    48  46  93 NW13G21   30.13S
WATERTON GATE    N/A     41  39  93 SW3         N/A
MILK RIVER       N/A     43  39  87 NW16        N/A
ONEFOUR          N/A     45  43  93 NW25G33     N/A
$$

REGIONAL REPORTS...SASKATCHEWAN

CITY           SKY/WX    TMP DP  RH WIND       PRES   REMARKS
SWIFT CURRENT  RAIN      50  50 100 N16G23    29.98R FOG
REGINA         LGT RAIN  54  52  94 NE9       29.91F
SASKATOON      MOCLDY    50  48  93 NE8       30.04S
CYPRESS HILLS    N/A     43  41  93 N12G23      N/A
VAL MARIE        N/A     50  48  93 N13         N/A
ROCKGLEN         N/A     48  48 100 N9          N/A
ASSINIBOIA       N/A     50  48  93 NW10        N/A
$$




USA.gov is the U.S. government's official web portal to all federal, state and local government web resources and services.